[[{"header":{"parameterUnit":"m.s-1","parameterCategory":1,"la1":30.2991,"la2":30.254,"lo1":-89.0895,"lo2":-89.0444,"dy":0.0017,"dx":0.0017,"nx":28,"ny":28,"refTime":"2025-02-03T09:00:00:Z","depth":0,"parameterNumber":2,"parameterNumberName":"U-component_of_WINDS"},"data":[0,0,0,0,0,0,0,0,0,0,0,0,0,0,0,0,0,0,0,0,0,0,0,0,0,0,0,0,0,0,0,0,0,0,0,0,0,0,0,0,0,0,0,0,0,0,0,0,0,0,0,0,0,0,0,0,0,0,-0.2609,-0.2609,0,-0.2606,-0.2606,-0.2606,-0.2593,-0.2593,-0.2593,-0.2592,-0.259,-0.259,-0.2591,0,0,0,0,0,0,0,0,0,0,0,0,0,-0.2606,-0.2606,-0.2609,-0.2609,-0.2609,-0.2606,-0.2606,-0.2606,-0.2593,-0.2593,-0.2592,-0.2592,-0.259,-0.259,-0.2591,0,0,0,0,0,0,0,0,0,0,0,0,0,-0.2606,-0.2606,-0.2609,-0.2602,-0.2602,-0.2606,-0.2606,-0.2606,-0.2593,-0.2593,-0.2592,-0.2592,-0.259,-0.259,-0.2591,-0.2602,0,0,-0.2592,-0.2592,0,0,0,0,0,0,0,0,-0.2606,-0.2606,-0.2603,-0.2603,-0.2602,-0.2599,-0.2604,-0.2604,-0.2593,-0.2596,-0.2592,-0.2592,-0.2594,-0.2594,-0.2594,-0.2601,-0.2601,-0.2592,-0.2592,-0.2592,-0.2592,0,0,0,0,0,0,0,-0.2606,-0.2606,-0.2608,-0.2603,-0.2603,-0.26,-0.2599,-0.2604,-0.2598,-0.2596,-0.2595,-0.2595,-0.2593,-0.2594,-0.2594,-0.2601,-0.2592,-0.2592,-0.2592,-0.2592,-0.2619,-0.2619,0,0,0,0,0,0,-0.2607,-0.2606,-0.2608,-0.2608,-0.2603,-0.26,-0.26,-0.2601,-0.2598,-0.2597,-0.2595,-0.2594,-0.2593,-0.2594,-0.2594,-0.2607,-0.2592,-0.2592,-0.2593,-0.2618,-0.2619,-0.2619,0,0,0,0,0,0,-0.2607,-0.2607,-0.2608,-0.2607,-0.2607,-0.2601,-0.2602,-0.2601,-0.2601,-0.2597,-0.2596,-0.2597,-0.2593,-0.2593,-0.26,-0.2606,-0.2593,-0.2593,-0.2617,-0.2618,-0.2619,-0.2632,0,0,0,0,0,0,-0.2607,-0.2607,-0.261,-0.2607,-0.2607,-0.2613,-0.2602,-0.2601,-0.2602,-0.2601,-0.2598,-0.2597,-0.2593,-0.2599,-0.26,-0.2607,-0.2593,-0.2617,-0.2618,-0.2619,-0.2631,-0.2633,-0.2635,0,0,0,0,0,-0.2607,-0.2614,-0.2611,-0.2611,-0.2611,-0.2614,-0.2614,-0.2608,-0.2602,-0.2606,-0.2604,-0.2597,-0.2606,-0.26,-0.2601,-0.2608,-0.2616,-0.2618,-0.2619,-0.263,-0.2633,-0.2635,0,0,0,0,0,0,-0.2619,-0.2614,-0.261,-0.2616,-0.2616,-0.2612,-0.2616,-0.2611,-0.2612,-0.2611,-0.2604,-0.2604,-0.2612,-0.261,-0.2604,-0.2619,-0.261,-0.2611,-0.2619,-0.2621,-0.2623,-0.2623,-0.2593,0,0,0,0,0,-0.2623,-0.2625,-0.2621,-0.2627,-0.2627,-0.2622,-0.2623,-0.2619,-0.2618,-0.2617,-0.2615,-0.2615,-0.2618,-0.262,-0.2622,-0.2631,-0.2631,-0.2636,-0.2638,-0.264,-0.2641,-0.2647,-0.265,-0.2623,-0.2623,-0.2623,0,0,-0.263,-0.2628,-0.2629,-0.263,-0.2628,-0.2632,-0.2622,-0.2625,-0.2628,-0.2618,-0.2624,-0.2623,-0.2622,-0.263,-0.2634,-0.2629,-0.2649,-0.2642,-0.2643,-0.2643,-0.2648,-0.2651,-0.2653,-0.2624,-0.2623,-0.2623,0,0,-0.2645,-0.2643,-0.2649,-0.2648,-0.2647,-0.2643,-0.2645,-0.2642,-0.264,-0.2646,-0.2639,-0.2643,-0.2647,-0.2647,-0.2648,-0.2664,-0.2659,-0.2665,-0.2676,-0.2681,-0.2684,-0.2685,-0.2692,-0.2694,-0.2667,-0.2667,-0.2667,0,-0.2655,-0.2658,-0.2652,-0.2657,-0.2657,-0.2649,-0.2655,-0.2654,-0.2654,-0.2655,-0.265,-0.2656,-0.2655,-0.2664,-0.2668,-0.2669,-0.2671,-0.2665,-0.2684,-0.2685,-0.2687,-0.2693,-0.2695,-0.2667,-0.2667,-0.2667,-0.2667,0,-0.267,-0.2673,-0.2678,-0.2678,-0.2679,-0.2684,-0.2679,-0.2682,-0.2678,-0.2675,-0.2682,-0.2681,-0.2683,-0.2684,-0.2681,-0.2693,-0.269,-0.2685,-0.2676,-0.269,-0.2696,-0.2698,-0.2669,-0.2668,-0.2668,-0.2668,0,0,-0.2692,-0.2689,-0.2691,-0.2691,-0.2689,-0.2692,-0.2697,-0.2699,-0.2701,-0.2701,-0.2706,-0.2711,-0.2706,-0.2707,-0.2703,-0.2708,-0.2722,-0.2702,-0.2702,-0.2706,-0.2736,-0.274,-0.2742,-0.2718,-0.2719,-0.2719,-0.2736,0,-0.2707,-0.2715,-0.271,-0.2719,-0.2722,-0.2715,-0.272,-0.2719,-0.2718,-0.2721,-0.2719,-0.2722,-0.2715,-0.2716,-0.2721,-0.2719,-0.2728,-0.2718,-0.2723,-0.2723,-0.2723,-0.2745,-0.2749,-0.2765,-0.2738,-0.2738,-0.2738,0,-0.2724,-0.2725,-0.2735,-0.2733,-0.2734,-0.2738,-0.274,-0.2743,-0.2743,-0.2741,-0.2743,-0.2738,-0.2744,-0.2736,-0.2745,-0.2738,-0.274,-0.274,-0.2741,-0.2741,-0.2731,-0.2746,-0.2769,-0.2772,-0.2742,-0.2741,-0.2741,0,-0.274,-0.2743,-0.275,-0.275,-0.2748,-0.2751,-0.2751,-0.2751,-0.2752,-0.2754,-0.2755,-0.2758,-0.276,-0.2762,-0.2759,-0.2753,-0.2768,-0.276,-0.2768,-0.2768,-0.2771,-0.277,-0.2795,-0.2772,-0.2772,-0.2772,-0.2772,0,-0.2756,-0.2762,-0.2756,-0.276,-0.2767,-0.2762,-0.2769,-0.2768,-0.2768,-0.2772,-0.2767,-0.2771,-0.2766,-0.277,-0.2768,-0.2776,-0.2776,-0.2776,-0.2775,-0.2776,-0.2776,-0.2777,-0.2776,-0.2773,-0.2773,-0.2773,-0.2772,0,-0.2774,-0.277,-0.2777,-0.2775,-0.2774,-0.278,-0.2778,-0.2782,-0.278,-0.2786,-0.2787,-0.2784,-0.2788,-0.2786,-0.279,-0.2789,-0.2799,-0.2797,-0.2799,-0.2798,-0.2806,-0.2805,-0.2832,-0.2835,-0.281,-0.2811,-0.2811,0,-0.2785,-0.2789,-0.2788,-0.279,-0.279,-0.2793,-0.2795,-0.2791,-0.2793,-0.2794,-0.2798,-0.2802,-0.2805,-0.2812,-0.2811,-0.2815,-0.2813,-0.2822,-0.2813,-0.2815,-0.2813,-0.2813,-0.2814,-0.2824,-0.2824,-0.2824,-0.2824,0,-0.2804,-0.2802,-0.2805,-0.2807,-0.2809,-0.2811,-0.2812,-0.2814,-0.281,-0.2813,-0.2817,-0.2819,-0.2824,-0.2828,-0.2832,-0.2832,-0.2828,-0.2827,-0.2829,-0.283,-0.2831,-0.2831,-0.2803,-0.2827,-0.2826,-0.2826,-0.2826,-0.2826,-0.2819,-0.2823,-0.2822,-0.2826,-0.2826,-0.2827,-0.2831,-0.283,-0.2833,-0.2836,-0.2834,-0.2839,-0.2841,-0.2845,-0.2846,-0.285,-0.2847,-0.285,-0.285,-0.2851,-0.2852,-0.2831,-0.2851,-0.2851,-0.2851,-0.2851,-0.2851,0,-0.2838,-0.2838,-0.2841,-0.2842,-0.2845,-0.2841,-0.2842,-0.2845,-0.2849,-0.2851,-0.2854,-0.2859,-0.2864,-0.2863,-0.2867,-0.2871,-0.287,-0.2873,-0.2872,-0.2873,-0.2855,-0.2853,-0.2874,-0.2874,-0.2874,-0.2874,-0.2874,-0.2874,-0.2848,-0.2855,-0.2853,-0.286,-0.286,-0.2865,-0.2866,-0.2868,-0.2869,-0.2875,-0.2878,-0.2878,-0.2879,-0.2883,-0.2887,-0.2887,-0.2889,-0.2893,-0.2892,-0.2876,-0.2874,-0.2871,-0.2869,-0.2893,-0.2893,-0.2909,-0.2909,-0.2909]},{"header":{"parameterUnit":"m.s-1","parameterCategory":1,"la1":30.2991,"la2":30.254,"lo1":-89.0895,"lo2":-89.0444,"dy":0.0017,"dx":0.0017,"nx":28,"ny":28,"refTime":"2025-02-03T09:00:00:Z","depth":0,"parameterNumber":3,"parameterNumberName":"V-component_of_WINDS"},"data":[0,0,0,0,0,0,0,0,0,0,0,0,0,0,0,0,0,0,0,0,0,0,0,0,0,0,0,0,0,0,0,0,0,0,0,0,0,0,0,0,0,0,0,0,0,0,0,0,0,0,0,0,0,0,0,0,0,0,1.0056,1.0056,0,1.009,1.009,1.0091,1.012,1.012,1.0121,1.0121,1.0156,1.0156,1.0157,0,0,0,0,0,0,0,0,0,0,0,0,0,1.0017,1.0018,1.0056,1.0056,1.0057,1.009,1.009,1.0091,1.012,1.012,1.0121,1.0121,1.0155,1.0156,1.0157,0,0,0,0,0,0,0,0,0,0,0,0,0,1.0041,1.0018,1.0056,1.0075,1.0077,1.009,1.009,1.0091,1.012,1.012,1.0121,1.0121,1.0155,1.0156,1.0157,1.0153,0,0,1.016,1.016,0,0,0,0,0,0,0,0,1.0039,1.0042,1.0072,1.0074,1.0076,1.0101,1.0089,1.0112,1.012,1.0104,1.0121,1.0121,1.0137,1.014,1.0145,1.0155,1.0156,1.016,1.016,1.0161,1.0161,0,0,0,0,0,0,0,1.0038,1.0041,1.0069,1.0072,1.0075,1.0083,1.0086,1.0094,1.0117,1.0105,1.0107,1.0111,1.0138,1.0144,1.0146,1.0157,1.016,1.0161,1.0161,1.0162,1.0166,1.0166,0,0,0,0,0,0,1.0033,1.0039,1.0068,1.007,1.0059,1.0083,1.0087,1.0093,1.0117,1.0121,1.011,1.0112,1.0142,1.0145,1.0147,1.0145,1.0161,1.0162,1.0162,1.0166,1.0166,1.0165,0,0,0,0,0,0,1.0032,1.0035,1.0067,1.0055,1.006,1.0083,1.0089,1.0093,1.0099,1.0121,1.0126,1.0112,1.0143,1.0146,1.0152,1.0147,1.0162,1.0163,1.0167,1.0166,1.0166,1.014,0,0,0,0,0,0,1.0031,1.0035,1.0033,1.0055,1.0061,1.007,1.0089,1.0093,1.01,1.0103,1.0124,1.0128,1.0143,1.015,1.0153,1.0148,1.0164,1.0168,1.0167,1.0166,1.0141,1.0138,1.0136,0,0,0,0,0,1.0029,1.0024,1.0033,1.0036,1.0059,1.007,1.0073,1.0091,1.01,1.0099,1.0113,1.0127,1.0147,1.015,1.0153,1.0149,1.0168,1.0167,1.0166,1.0142,1.0139,1.0136,0,0,0,0,0,0,1.0001,1.0027,1.0037,1.0039,1.0052,1.0075,1.0074,1.0087,1.0097,1.0099,1.0121,1.0126,1.0129,1.014,1.0144,1.0147,1.0159,1.0159,1.014,1.0137,1.0135,1.0132,1.0165,0,0,0,0,0,0.9995,1.0001,1.0024,1.0024,1.003,1.0051,1.0056,1.0069,1.0083,1.0089,1.0104,1.0117,1.0127,1.0133,1.0142,1.0143,1.0148,1.0142,1.0139,1.0137,1.0136,1.0138,1.0136,1.0162,1.0162,1.0162,0,0,0.9982,0.9998,1.0,1.0018,1.003,1.0037,1.0055,1.0061,1.0066,1.009,1.0096,1.0108,1.0125,1.0128,1.013,1.0137,1.013,1.0135,1.0133,1.0134,1.0137,1.0135,1.0132,1.0162,1.0162,1.0162,0,0,0.9963,0.9975,0.9976,0.9988,1.0005,1.0019,1.002,1.0041,1.0049,1.0056,1.0074,1.0081,1.0097,1.0108,1.0116,1.0102,1.0116,1.0105,1.0091,1.0093,1.0091,1.0089,1.0085,1.0083,1.0104,1.0104,1.0104,0,0.9945,0.9956,0.9975,0.9981,0.9989,1.001,1.0012,1.0023,1.0042,1.0047,1.0054,1.0075,1.0088,1.0095,1.0091,1.0097,1.0098,1.0103,1.0089,1.0088,1.0087,1.0083,1.0081,1.0103,1.0103,1.0103,1.0103,0,0.9934,0.9941,0.994,0.9959,0.9967,0.997,0.9991,0.9996,1.0009,1.0022,1.003,1.0046,1.006,1.0062,1.0074,1.0071,1.0075,1.0085,1.0098,1.0082,1.008,1.0078,1.0101,1.0101,1.0102,1.0102,0,0,0.9897,0.9928,0.9927,0.9936,0.9957,0.9964,0.9969,0.9982,0.9987,1.0,1.0005,1.0018,1.0029,1.0038,1.0051,1.0053,1.0042,1.0063,1.0064,1.006,1.0041,1.0033,1.0031,1.0051,1.0051,1.0051,1.004,0,0.9882,0.9892,0.991,0.9915,0.9922,0.9943,0.9948,0.9962,0.9975,0.9983,0.9998,1.0007,1.0019,1.0025,1.0027,1.0043,1.0039,1.0044,1.0057,1.0057,1.0052,1.003,1.0021,1.001,1.0039,1.0039,1.0038,0,0.9866,0.9878,0.9883,0.9905,0.9909,0.9912,0.9927,0.9935,0.9951,0.9961,0.9971,0.9986,0.9993,1.0004,1.0015,1.0018,1.0024,1.0033,1.0033,1.0035,1.0047,1.0032,1.0007,1.0006,1.0037,1.0037,1.0037,0,0.984,0.9857,0.9863,0.987,0.9895,0.9898,0.9908,0.9925,0.9933,0.9946,0.9951,0.9965,0.9972,0.9982,1.0001,1.0007,1.001,1.0022,1.0018,1.0018,1.0018,1.0018,0.9995,1.0021,1.0021,1.0021,1.0021,0,0.9821,0.9824,0.9852,0.9855,0.9859,0.988,0.9884,0.9896,0.9911,0.9918,0.9937,0.9943,0.9967,0.9976,0.9991,0.9998,1.0001,1.0009,1.0013,1.0008,1.0007,1.0013,1.0014,1.0021,1.0021,1.0021,1.0021,0,0.9793,0.9811,0.9819,0.9843,0.9849,0.9851,0.9871,0.9876,0.989,0.9898,0.9902,0.9924,0.9936,0.9956,0.9973,0.9983,0.9987,0.9994,0.9982,0.9984,0.998,0.998,0.996,0.9959,0.9985,0.9985,0.9984,0,0.978,0.9782,0.9806,0.9812,0.9822,0.9832,0.984,0.9861,0.9868,0.9888,0.989,0.9904,0.9915,0.9933,0.9952,0.9965,0.9972,0.9964,0.9974,0.9969,0.9973,0.9973,0.9974,0.9962,0.9962,0.9961,0.9961,0,0.9755,0.9765,0.9776,0.979,0.9799,0.9811,0.9824,0.9828,0.9852,0.986,0.9873,0.9882,0.99,0.9913,0.9929,0.9941,0.9955,0.9958,0.9958,0.9952,0.9946,0.995,0.9976,0.9958,0.9958,0.9959,0.9959,0.9959,0.9735,0.9739,0.9756,0.9768,0.978,0.9792,0.9798,0.9814,0.9824,0.9841,0.9853,0.9864,0.9882,0.9905,0.9916,0.9926,0.9932,0.9932,0.9932,0.9932,0.993,0.9944,0.9929,0.9929,0.9929,0.9929,0.9929,0,0.9712,0.9725,0.9735,0.9754,0.9763,0.9776,0.9791,0.9798,0.9808,0.9823,0.9835,0.985,0.9863,0.9882,0.9897,0.9902,0.9909,0.9905,0.9905,0.9908,0.9923,0.9922,0.9899,0.9899,0.9899,0.9899,0.9899,0.9899,0.9702,0.9709,0.9721,0.9734,0.9747,0.9759,0.9767,0.9779,0.9791,0.9806,0.9818,0.983,0.9847,0.9864,0.9877,0.9882,0.9887,0.9882,0.9889,0.9904,0.9906,0.9909,0.9908,0.9882,0.9882,0.9873,0.9873,0.9873]}]]